RH
94 90 87 87 86 85 85 83 81 78 74 71 71 69 63 61 62 60 60 58 57 57 59 62 62 67 72 75 79 70 62 60
92 86 86 96 93 82 79 75 71 72 69 69 67 62 60 62 59 58 57 56 56 57 60 60 60 66 71 72 70 62 60 63
89 89 88 95 91 78 71 67 67 67 68 70 76 73 71 63 60 58 58 57 58 58 58 61 61 63 65 67 62 62 59 61
90 86 92 81 64 81 75 70 82 78 76 78 82 71 72 65 63 59 59 62 61 60 60 60 61 66 64 64 65 62 63 60
86 81 74 69 65 74 81 74 80 80 83 84 76 71 73 74 74 73 73 66 68 65 66 67 64 68 67 66 62 64 69 65
81 80 72 73 72 75 73 72 82 85 83 82 80 79 75 77 76 75 74 76 72 72 75 68 68 65 61 59 58 63 67 70
86 89 91 85 80 81 84 87 83 82 82 80 81 80 80 78 77 78 78 76 78 75 74 72 72 66 62 60 58 64 69 75
76 79 75 68 74 74 77 80 82 81 81 80 79 82 81 80 80 80 82 77 77 76 77 77 76 70 64 63 65 70 70 73
76 77 71 69 72 74 75 73 78 82 80 78 77 80 79 81 83 86 84 78 75 77 78 78 76 68 69 69 71 70 74 78
74 62 72 71 69 72 70 78 80 81 79 78 74 76 76 80 80 86 82 79 79 79 82 78 78 80 78 79 74 72 72 74
70 68 67 72 72 68 71 74 79 80 79 78 73 77 75 79 81 84 80 80 82 79 82 83 83 83 72 81 78 78 75 68
66 70 72 65 64 64 70 72 75 74 77 75 73 76 76 79 80 81 78 81 81 82 81 84 85 88 64 74 79 81 82 84
65 66 64 59 63 64 66 76 76 77 73 70 73 74 77 78 80 82 81 82 82 79 84 84 82 87 78 74 76 77 86 89
61 58 58 54 55 56 67 68 71 70 68 69 70 71 73 71 79 82 81 81 80 82 81 87 88 88 86 91 92 88 79 71
59 58 56 56 57 60 67 64 64 64 63 65 67 68 72 75 77 80 82 84 85 87 86 84 90 88 89 87 88 92 95 86
60 58 61 62 57 56 57 60 62 64 66 66 66 69 71 74 76 78 81 85 83 83 80 88 88 90 87 76 84 90 95 91
69 68 62 59 52 53 61 66 68 69 72 71 69 69 69 69 73 74 80 85 84 84 85 86 87 91 93 92 91 89 92 95
66 62 65 61 60 63 65 64 66 69 75 76 76 77 78 73 70 75 77 79 84 88 88 86 89 90 90 90 92 95 94 95
62 57 59 62 64 63 58 57 58 64 68 74 78 79 78 75 73 75 76 79 82 85 86 88 90 92 90 93 90 90 87 88
57 56 58 61 62 62 57 56 61 64 67 71 78 78 78 75 76 77 77 80 83 84 88 87 90 92 90 90 91 90 88 91
Wind_Speed
8 7 14 17 16 17 16 16 15 14 13 12 13 15 17 12 14 13 11 10 9 11 12 12 12 13 13 9 9 11 6 4
6 6 6 7 6 15 14 15 15 14 13 12 11 10 12 17 12 12 9 8 10 10 12 12 13 11 12 12 10 12 6 5
4 6 6 6 5 9 13 16 14 12 9 10 7 1 2 9 10 11 14 14 12 14 13 13 11 11 11 12 11 4 5 4
5 5 6 6 6 4 5 7 5 5 5 5 3 2 3 6 9 11 14 15 14 13 12 11 8 3 4 8 4 5 4 4
8 7 7 6 6 3 2 3 3 4 5 3 4 4 4 4 3 4 5 11 5 6 5 4 6 4 5 4 5 5 3 4
9 8 7 5 5 4 4 4 3 4 4 5 4 3 4 4 4 5 5 4 5 4 3 5 6 6 6 6 6 5 4 4
7 6 6 4 5 4 5 4 4 5 5 5 4 4 4 4 5 4 4 4 4 5 5 5 5 6 6 6 6 6 6 4
7 7 6 7 6 8 6 5 5 5 4 4 6 4 4 5 5 5 5 4 4 4 4 4 5 5 6 6 6 8 10 10
8 7 7 8 8 8 7 6 6 5 4 6 6 5 6 6 5 4 4 4 6 5 5 4 5 5 6 6 6 11 11 11
10 9 8 8 7 7 6 5 5 4 4 4 6 6 6 6 4 5 4 4 4 4 4 4 4 4 4 5 7 10 11 11
12 11 10 9 8 8 8 8 6 4 4 4 6 5 6 6 5 4 5 4 4 3 4 3 3 3 5 7 8 9 9 9
15 10 11 10 8 8 6 6 4 4 4 4 5 5 6 6 5 5 5 4 4 3 4 4 3 3 9 9 8 8 8 8
15 15 12 11 9 8 6 4 3 4 4 5 6 5 6 6 4 5 5 4 4 3 2 6 8 4 5 8 8 8 8 7
16 16 14 10 8 5 4 5 3 4 3 4 5 5 6 6 5 5 5 4 5 5 3 3 4 5 3 2 4 2 6 7
15 15 14 12 11 9 6 6 4 3 3 3 3 6 6 6 5 5 5 3 4 4 4 5 4 4 7 3 2 3 3 2
13 13 13 10 13 10 13 7 6 3 3 3 4 5 5 6 5 5 5 3 5 4 4 4 4 4 3 7 7 3 3 2
10 10 10 10 12 14 10 9 5 5 4 6 5 4 5 5 6 6 5 4 4 5 6 6 5 4 3 2 5 5 5 3
11 12 8 11 12 11 12 13 12 8 5 5 4 3 3 5 5 5 5 5 5 4 6 7 6 6 5 5 3 3 1 3
13 14 9 10 11 10 12 14 14 13 10 6 6 4 3 4 4 4 3 4 5 6 7 6 6 5 5 4 4 3 2 2
15 14 12 9 10 10 11 13 9 8 8 8 5 4 4 5 5 5 6 6 6 6 5 5 6 5 6 5 3 3 3 2
Wind_Direction
102 104 107 101 104 103 99 101 102 103 103 106 108 109 108 98 88 81 80 71 54 41 38 34 37 35 34 30 17 19 13 351
106 114 104 95 100 109 119 117 114 111 111 106 105 109 106 99 93 85 71 71 48 44 55 44 40 38 41 48 40 29 20 24
127 122 116 117 138 148 132 127 121 113 123 132 112 89 73 96 100 82 63 63 56 51 47 39 35 33 36 38 37 32 31 27
149 139 136 145 149 121 113 104 94 81 72 92 114 129 131 91 75 81 64 56 54 44 42 35 36 28 28 34 32 29 29 19
169 162 165 172 143 138 103 99 92 75 66 81 104 87 71 75 82 65 54 54 43 36 25 25 26 31 35 32 28 31 23 26
166 171 184 192 148 144 120 105 85 75 60 85 103 85 77 78 76 66 63 51 53 39 30 17 29 42 40 33 28 28 32 51
168 171 198 200 130 113 101 94 91 88 65 67 80 90 87 78 70 69 61 58 50 37 30 26 29 24 25 26 25 37 54 57
160 183 167 142 125 120 116 113 103 80 65 65 62 89 91 84 71 55 53 54 51 51 41 37 34 24 24 17 27 64 58 50
161 141 124 110 124 121 119 117 100 89 80 63 61 83 89 90 78 64 63 52 58 41 40 48 36 27 37 31 54 69 60 54
148 135 122 116 114 115 107 96 90 88 82 74 65 79 90 88 81 75 70 58 55 50 34 44 38 39 40 43 61 78 72 62
130 128 124 118 106 105 103 105 98 95 83 71 66 87 85 82 74 80 71 60 47 44 40 57 35 30 73 71 72 68 63 67
135 130 132 129 114 107 97 96 89 90 87 73 67 66 78 81 74 78 70 63 44 60 74 42 56 36 88 72 72 74 72 64
139 137 142 134 129 127 121 114 99 72 75 80 74 71 76 80 74 80 71 73 59 47 79 47 30 22 103 81 69 72 72 72
150 148 149 147 142 133 117 132 97 104 90 75 78 81 82 85 92 93 90 84 64 59 77 114 58 14 108 84 156 125 65 55
160 159 160 156 141 121 107 98 98 94 82 84 66 77 77 83 88 91 88 86 79 68 72 98 129 34 46 124 116 157 128 31
156 161 154 149 148 142 148 142 143 149 129 112 94 94 90 91 95 92 89 87 85 85 73 75 98 117 77 47 57 93 137 121
149 147 147 149 159 158 148 140 132 129 122 121 115 98 100 96 99 96 99 97 93 96 78 72 68 87 85 120 53 51 48 118
148 142 139 144 144 143 141 141 142 139 141 134 131 111 99 100 104 110 107 107 100 95 84 83 81 73 73 70 90 115 51 92
143 138 138 142 142 148 151 150 149 154 154 148 142 134 123 138 125 110 96 111 105 94 84 87 92 90 87 82 74 78 79 58
148 145 142 138 139 143 148 149 148 153 152 150 144 143 147 154 122 104 100 95 88 83 82 81 85 89 99 94 95 82 77 80